Weather History for KLWS - November, 2012

Change the Weather History Date:

Friday, November 9, 2012

  Actual Average Record
Temperature  
Mean Temperature 38 °F 43 °F  
Max Temperature 44 °F 51 °F 66 °F (1989)
Min Temperature 32 °F 36 °F 18 °F (1936)
Degree Days  
Heating Degree Days 27 22  
Month to date heating degree days 135 183  
Since 1 July heating degree days 521 708  
Cooling Degree Days 0 0  
Month to date cooling degree days 0 0  
Year to date cooling degree days 1034 807  
Moisture  
Dew Point 34 °F    
Average Humidity 77    
Maximum Humidity 92    
Minimum Humidity 62    
Precipitation  
Precipitation T in 0.04 in 0.32 in (1924)
Month to date precipitation 0.32 0.36  
Year to date precipitation 13.73 10.52  
Snow  
Snow 0.00 in 0.00 in 0.30 in (1966)
Month to date snowfall 0.0 0.2  
Since 1 July snowfall 0.0 0.2  
Since 1 September snowfall 0.0 0.2  
Snow Depth 0.00 in    
Sea Level Pressure  
Sea Level Pressure 29.82 in    
Wind  
Wind Speed 3 mph (SW)    
Max Wind Speed 12 mph    
Max Gust Speed -    
Visibility 9 miles    
Events Rain    
T = Trace of Precipitation, MM = Missing Value Source: NWS Daily Summary

Daily Weather History Graph

Daily Weather History Graph

Search for Another Location

Airport or City:

Trip Planner

Search our weather history database for the weather conditions in past years. The results will help you decide how hot, cold, wet, or windy it might be!

Date:

Astronomy

Nov. 09, 2012 Rise Set
Actual Time 6:41 AM PST 4:21 PM PST
Civil Twilight 6:09 AM PST 4:53 PM PST
Nautical Twilight 5:33 AM PST 5:29 PM PST
Astronomical Twilight 4:58 AM PST 6:05 PM PST
Moon 1:30 AM PST (11/9) 1:50 PM PST (11/9)
Length of Visible Light 10h 44m
Length of Day
9h 39m
Waning Crescent, 22% of the Moon is Illuminated
Nov 9
Waning Crescent
Nov 13
New
Nov 20
First Quarter
Nov 28
Full
Dec 6
Last Quarter

Hourly Weather History & Observations

Time (PST) Temp. Windchill Dew Point Humidity Pressure Visibility Wind Dir Wind Speed Gust Speed Precip Events Conditions
12:56 AM 37.9 °F 33.5 °F 35.1 °F 89% 29.78 in 10.0 mi East 5.8 mph - N/A   Overcast
1:56 AM 37.0 °F - 35.1 °F 93% 29.78 in 5.0 mi Calm Calm - N/A   Overcast
2:24 AM 37.4 °F - 35.6 °F 93% 29.76 in 9.0 mi Calm Calm - N/A   Overcast
2:36 AM 37.4 °F - 35.6 °F 93% 29.76 in 9.0 mi Calm Calm - N/A   Overcast
2:56 AM 37.0 °F - 36.0 °F 96% 29.79 in 8.0 mi Calm Calm - N/A   Overcast
3:14 AM 37.4 °F - 35.6 °F 93% 29.76 in 10.0 mi Calm Calm - N/A   Overcast
3:56 AM 37.0 °F - 36.0 °F 96% 29.80 in 2.5 mi Calm Calm - N/A   Overcast
4:06 AM 37.4 °F - 35.6 °F 93% 29.77 in 2.5 mi Calm Calm - N/A   Overcast
4:19 AM 37.4 °F 33.8 °F 35.6 °F 93% 29.77 in 4.0 mi SSE 4.6 mph - 0.00 in   Overcast
4:31 AM 37.4 °F 34.9 °F 35.6 °F 93% 29.78 in 5.0 mi South 3.5 mph - 0.00 in   Overcast
4:56 AM 37.0 °F - 35.1 °F 93% 29.81 in 9.0 mi Calm Calm - 0.00 in   Overcast
5:03 AM 37.4 °F - 35.6 °F 93% 29.78 in 9.0 mi Calm Calm - N/A   Overcast
5:11 AM 37.4 °F 34.9 °F 35.6 °F 93% 29.78 in 9.0 mi ESE 3.5 mph - N/A   Overcast
5:25 AM 37.4 °F 34.9 °F 35.6 °F 93% 29.78 in 10.0 mi South 3.5 mph - N/A   Overcast
5:56 AM 37.0 °F - 35.1 °F 93% 29.82 in 8.0 mi Calm Calm - N/A   Overcast
6:47 AM 37.4 °F 33.8 °F 35.6 °F 93% 29.80 in 10.0 mi South 4.6 mph - N/A   Overcast
6:56 AM 37.9 °F 34.4 °F 35.1 °F 89% 29.83 in 10.0 mi SSW 4.6 mph - N/A   Overcast
7:26 AM 37.4 °F 34.9 °F 35.6 °F 93% 29.81 in 9.0 mi North 3.5 mph - N/A   Overcast
7:46 AM 37.4 °F - 35.6 °F 93% 29.81 in 10.0 mi Calm Calm - N/A   Overcast
7:56 AM 37.9 °F 34.4 °F 36.0 °F 93% 29.84 in 9.0 mi WSW 4.6 mph - N/A   Overcast
8:04 AM 39.2 °F 37.0 °F 35.6 °F 87% 29.81 in 9.0 mi WSW 3.5 mph - N/A   Overcast
8:23 AM 39.2 °F 34.2 °F 35.6 °F 87% 29.82 in 10.0 mi Variable 6.9 mph - N/A   Overcast
8:26 AM 39.2 °F 34.2 °F 35.6 °F 87% 29.82 in 10.0 mi Variable 6.9 mph - N/A   Overcast
8:41 AM 39.2 °F 35.9 °F 33.8 °F 81% 29.82 in 10.0 mi West 4.6 mph - N/A   Mostly Cloudy
8:56 AM 39.9 °F 35.8 °F 34.0 °F 79% 29.84 in 10.0 mi West 5.8 mph - N/A   Mostly Cloudy
9:56 AM 42.1 °F - 34.0 °F 73% 29.85 in 10.0 mi Calm Calm - N/A   Scattered Clouds
10:56 AM 42.1 °F 38.4 °F 32.0 °F 67% 29.84 in 10.0 mi NW 5.8 mph - N/A   Scattered Clouds
11:21 AM 42.8 °F 37.5 °F 33.8 °F 70% 29.81 in 10.0 mi NW 9.2 mph - N/A   Overcast
11:33 AM 42.8 °F 37.5 °F 32.0 °F 66% 29.81 in 10.0 mi NW 9.2 mph - N/A   Overcast
11:56 AM 44.1 °F 41.5 °F 32.0 °F 63% 29.83 in 10.0 mi NNW 4.6 mph - N/A   Overcast
12:56 PM 43.0 °F - 30.9 °F 62% 29.83 in 10.0 mi Calm Calm - N/A   Overcast
1:56 PM 41.0 °F 36.4 °F 32.0 °F 70% 29.83 in 10.0 mi WSW 6.9 mph - 0.00 in   Overcast
2:54 PM 39.2 °F 35.0 °F 33.8 °F 81% 29.81 in 10.0 mi SSW 5.8 mph - N/A   Overcast
2:56 PM 39.9 °F 35.1 °F 33.1 °F 77% 29.84 in 10.0 mi SSW 6.9 mph - N/A   Overcast
3:03 PM 39.2 °F 33.6 °F 33.8 °F 81% 29.81 in 10.0 mi SSW 8.1 mph - N/A   Overcast
3:45 PM 37.4 °F 31.4 °F 35.6 °F 93% 29.82 in 10.0 mi SSW 8.1 mph - 0.00 in   Overcast
3:56 PM 37.9 °F 32.7 °F 34.0 °F 86% 29.85 in 10.0 mi South 6.9 mph - 0.00 in   Overcast
4:56 PM 37.9 °F 35.5 °F 35.1 °F 89% 29.86 in 10.0 mi SSW 3.5 mph - 0.00 in Rain Light Rain
5:56 PM 37.0 °F 33.3 °F 33.1 °F 86% 29.87 in 10.0 mi SW 4.6 mph - 0.00 in   Partly Cloudy
6:56 PM 37.0 °F - 33.1 °F 86% 29.87 in 10.0 mi Calm Calm - N/A   Overcast
7:03 PM 35.6 °F - 33.8 °F 93% 29.84 in 10.0 mi Calm Calm - N/A   Overcast
7:41 PM 35.6 °F 32.8 °F 33.8 °F 93% 29.84 in 10.0 mi SSE 3.5 mph - N/A   Overcast
7:56 PM 35.1 °F - 33.1 °F 92% 29.88 in 10.0 mi Calm Calm - N/A   Overcast
8:56 PM 35.1 °F - 32.0 °F 89% 29.88 in 10.0 mi Calm Calm - N/A   Scattered Clouds
9:56 PM 33.1 °F - 30.9 °F 92% 29.88 in 10.0 mi Calm Calm - N/A   Partly Cloudy
10:07 PM 35.6 °F - 32.0 °F 87% 29.85 in 10.0 mi Calm Calm - N/A   Mostly Cloudy
10:34 PM 35.6 °F - 33.8 °F 93% 29.85 in 10.0 mi Calm Calm - N/A   Overcast
10:56 PM 35.1 °F - 33.1 °F 92% 29.88 in 8.0 mi Calm Calm - N/A   Overcast
11:56 PM 34.0 °F - 33.1 °F 96% 29.89 in 4.0 mi Calm Calm - N/A   Overcast